"startDT [UTC]","vpos","CH4 [ppm]","stdev(CH4) [ppm]","CO2 [ppm]","stdev(CO2) [ppm]","H2O [ppm]","stdev(H2O)","p_LGR [torr]","T_LGR [C]","mt1_LGR [us]","mt2_LGR [us]","T_ECpre [C]","T_EC1 [C]","T_EC2 [C]","p_inlet [hPa]","p_in [hPa]","p_out [hPa]","T_inlet [C]","RH_inlet [%]","dwpt_inlet [C]","T_vent [C]","RH_vent [%]","dwpt_vent [C]","flow_vent [l min-1]","flow_inlet [l min-1]","dwpt_sample [C]","T_room [C]"
2012-02-14 00:00:00,0.0,1.8992,0.0008,400.35,0.36,48.0,37.1,138.12,28.40,24.60,36.32,0.04,-272.74,-272.74,-49,562,-928,22.9,2.6,-26.2,22.9,2.7,-25.8,5.73,2.29,-27.2,27.4
2012-02-14 00:01:00,0.0,1.8990,0.0008,400.27,0.38,53.7,37.1,138.12,28.41,24.60,36.32,0.04,-272.74,-272.74,-49,562,-928,22.9,2.6,-26.1,22.9,2.7,-25.7,5.73,2.50,-27.1,27.5
2012-02-14 00:02:00,0.0,1.8993,0.0009,400.32,0.41,71.5,33.9,138.12,28.43,24.60,36.33,0.04,-272.74,-272.74,-49,561,-927,23.0,2.6,-26.0,22.9,2.7,-25.7,5.73,2.26,-27.0,27.6
2012-02-14 00:03:00,0.0,1.8989,0.0008,400.28,0.40,81.4,40.4,138.11,28.45,24.60,36.33,0.04,-272.74,-272.74,-50,562,-927,23.0,2.6,-25.9,23.0,2.7,-25.5,5.73,2.46,-26.9,27.6
2012-02-14 00:04:00,0.0,1.8992,0.0008,400.44,0.44,83.7,32.7,138.11,28.46,24.60,36.32,0.04,-272.74,-272.74,-49,562,-928,23.0,2.7,-25.6,23.0,2.8,-25.3,5.73,2.34,-26.9,27.7
2012-02-14 00:05:00,0.0,1.8998,0.0009,400.35,0.42,87.5,33.4,138.11,28.48,24.60,36.33,0.04,-272.73,-272.74,-49,562,-928,23.1,2.8,-25.4,23.0,2.8,-25.1,5.73,2.37,-26.8,27.8
2012-02-14 00:06:00,0.0,1.8995,0.0010,400.47,0.39,97.8,37.6,138.11,28.50,24.60,36.33,0.04,-272.74,-272.73,-49,563,-928,23.1,2.7,-25.5,23.1,2.8,-25.1,5.73,2.43,-26.8,27.8
2012-02-14 00:07:00,0.0,1.8996,0.0008,400.57,0.42,92.9,31.5,138.10,28.52,24.60,36.33,0.04,-272.74,-272.74,-49,562,-928,23.1,2.6,-25.8,23.1,2.7,-25.4,5.73,2.29,-26.7,27.9
2012-02-14 00:08:00,0.0,1.9001,0.0008,400.57,0.39,101.6,34.4,138.10,28.53,24.60,36.32,0.04,-272.74,-272.74,-49,562,-928,23.2,2.6,-25.8,23.1,2.7,-25.4,5.73,2.48,-26.6,27.9
2012-02-14 00:09:00,0.0,1.9002,0.0010,400.55,0.36,109.8,31.3,138.10,28.55,24.60,36.32,0.04,-272.74,-272.74,-48,563,-928,23.2,2.6,-25.7,23.2,2.7,-25.3,5.73,2.26,-26.6,28.0
2012-02-14 00:10:00,0.0,1.9007,0.0010,400.51,0.39,110.9,29.5,138.10,28.57,24.60,36.33,0.04,-272.74,-272.74,-49,563,-928,23.2,2.6,-25.7,23.2,2.7,-25.3,5.73,2.48,-26.5,27.8
2012-02-14 00:11:00,0.0,1.9007,0.0007,400.63,0.33,110.1,34.0,138.10,28.59,24.60,36.32,0.04,-272.74,-272.74,-49,563,-928,23.3,2.6,-25.7,23.2,2.8,-25.3,5.73,2.39,-26.5,27.5
2012-02-14 00:12:00,0.0,1.9001,0.0009,400.55,0.33,103.8,34.0,138.11,28.60,24.60,36.33,0.04,-272.74,-272.74,-49,563,-929,23.3,2.6,-25.8,23.2,2.7,-25.4,5.73,2.35,-26.6,27.2
2012-02-14 00:13:00,0.0,1.9004,0.0008,400.58,0.35,93.2,30.5,138.11,28.60,24.60,36.33,0.04,-272.74,-272.74,-49,563,-929,23.2,2.6,-25.7,23.2,2.8,-25.3,5.73,2.37,-26.8,26.9
2012-02-14 00:14:00,0.0,1.9005,0.0008,400.58,0.35,77.1,37.2,138.12,28.59,24.60,36.33,0.04,-272.74,-272.74,-49,564,-929,23.2,2.6,-25.8,23.1,2.8,-25.3,5.73,2.39,-26.9,26.7
2012-02-14 00:15:00,0.0,1.9002,0.0008,400.62,0.37,63.7,34.6,138.13,28.58,24.60,36.32,0.04,-272.73,-272.73,-49,564,-929,23.1,2.6,-25.8,23.1,2.8,-25.4,5.73,2.40,-27.0,26.4
2012-02-14 00:16:00,0.0,1.9006,0.0009,400.62,0.37,53.1,28.9,138.13,28.56,24.60,36.33,0.04,-272.74,-272.73,-49,564,-929,23.1,2.6,-25.8,23.0,2.8,-25.4,5.73,2.41,-27.2,26.2
2012-02-14 00:17:00,0.0,1.9006,0.0008,400.69,0.38,37.8,33.4,138.14,28.55,24.60,36.32,0.04,-272.74,-272.74,-49,563,-929,23.0,2.7,-25.8,23.0,2.8,-25.4,5.73,2.40,-27.3,26.2
2012-02-14 00:18:00,0.0,1.9004,0.0008,400.75,0.41,28.0,27.9,138.14,28.53,24.60,36.32,0.04,-272.73,-272.74,-50,563,-929,23.0,2.7,-25.8,22.9,2.8,-25.5,5.73,2.40,-27.4,26.1
2012-02-14 00:19:00,0.0,1.9002,0.0009,400.77,0.37,32.0,32.1,138.15,28.50,24.60,36.32,0.04,-272.74,-272.74,-50,563,-929,22.9,2.7,-25.8,22.9,2.8,-25.4,5.73,2.38,-27.5,25.9
2012-02-14 00:20:00,0.0,1.9000,0.0008,400.75,0.44,14.3,20.1,138.15,28.48,24.60,36.32,0.04,-272.74,-272.74,-50,563,-929,22.9,2.7,-25.7,22.8,2.8,-25.4,5.73,2.37,-27.6,25.8
2012-02-14 00:21:00,0.0,1.8994,0.0009,400.79,0.32,14.7,22.5,138.15,28.46,24.60,36.32,0.04,-272.73,-272.74,-50,563,-929,22.8,2.7,-25.7,22.8,2.8,-25.4,5.73,2.36,-27.7,26.0
2012-02-14 00:22:00,0.0,1.8990,0.0010,400.69,0.39,10.7,18.9,138.15,28.43,24.60,36.32,0.04,-272.73,-272.74,-49,563,-929,22.8,2.7,-25.8,22.7,2.8,-25.4,5.73,2.39,-27.6,26.4
2012-02-14 00:23:00,0.0,1.8991,0.0009,400.75,0.34,16.8,21.9,138.15,28.41,24.60,36.32,0.04,-272.74,-272.74,-49,562,-928,22.8,2.7,-25.7,22.7,2.8,-25.4,5.73,2.29,-27.6,26.7
2012-02-14 00:24:00,0.0,1.8992,0.0010,400.74,0.44,21.0,23.4,138.14,28.40,24.60,36.32,0.04,-272.74,-272.73,-51,562,-928,22.9,2.7,-25.7,22.8,2.8,-25.3,5.73,2.34,-27.5,27.0
2012-02-14 00:25:00,0.0,1.8998,0.0009,400.52,0.41,19.2,23.1,138.14,28.40,24.60,36.32,0.04,-272.73,-272.73,-50,562,-927,22.9,2.7,-25.7,22.8,2.8,-25.3,5.73,2.49,-27.4,27.1
2012-02-14 00:26:00,0.0,1.8999,0.0008,400.53,0.37,29.4,28.2,138.13,28.40,24.60,36.32,0.04,-272.74,-272.74,-49,563,-929,22.9,2.7,-25.7,22.8,2.8,-25.3,5.73,2.28,-27.3,27.2
2012-02-14 00:27:00,0.0,1.8994,0.0009,400.39,0.36,39.9,26.5,138.13,28.40,24.60,36.32,0.04,-272.74,-272.74,-49,562,-928,22.9,2.7,-25.9,22.9,2.8,-25.5,5.73,2.42,-27.2,27.3
2012-02-14 00:28:00,0.0,1.8997,0.0008,400.32,0.44,43.3,30.3,138.12,28.42,24.60,36.32,0.04,-272.73,-272.74,-50,562,-928,22.9,2.6,-26.1,22.9,2.7,-25.7,5.73,2.40,-27.2,27.4
2012-02-14 00:29:00,0.0,1.8992,0.0009,400.33,0.35,61.8,28.6,138.12,28.43,24.60,36.32,0.04,-272.74,-272.73,-49,562,-929,23.0,2.6,-26.2,22.9,2.7,-25.8,5.73,2.30,-27.1,27.5
2012-02-14 00:30:00,0.0,1.8996,0.0009,400.42,0.33,63.6,32.1,138.12,28.44,24.60,36.32,0.04,-272.74,-272.74,-48,562,-931,23.0,2.5,-26.3,23.0,2.6,-25.9,5.73,2.49,-27.0,27.6
2012-02-14 00:31:00,0.0,1.8998,0.0009,400.32,0.31,76.1,32.6,138.11,28.46,24.60,36.32,0.04,-272.74,-272.73,-47,561,-928,23.0,2.6,-26.2,23.0,2.6,-25.9,5.73,2.26,-26.9,27.7
2012-02-14 00:32:00,0.0,1.8994,0.0009,400.25,0.35,82.7,29.4,138.11,28.47,24.60,36.33,0.04,-272.74,-272.73,-49,563,-928,23.1,2.6,-26.1,23.0,2.7,-25.7,5.73,2.47,-26.9,27.7
2012-02-14 00:33:00,0.0,1.8996,0.0008,400.34,0.34,81.3,33.6,138.11,28.49,24.60,36.33,0.04,-272.74,-272.74,-49,562,-928,23.1,2.6,-26.2,23.1,2.7,-25.7,5.73,2.31,-26.8,27.8
2012-02-14 00:34:00,0.0,1.9001,0.0008,400.56,0.33,93.2,34.8,138.11,28.51,24.60,36.32,0.04,-272.74,-272.74,-49,562,-928,23.1,2.6,-26.0,23.1,2.7,-25.6,5.73,2.40,-26.8,27.9
2012-02-14 00:35:00,0.0,1.9001,0.0009,400.60,0.43,99.9,34.8,138.10,28.53,24.60,36.32,0.04,-272.74,-272.74,-49,562,-928,23.2,2.6,-26.0,23.1,2.7,-25.5,5.73,2.39,-26.8,27.9
2012-02-14 00:36:00,0.0,1.9006,0.0009,400.62,0.34,96.2,35.1,138.10,28.55,24.60,36.32,0.04,-272.74,-272.74,-49,563,-928,23.2,2.6,-26.0,23.2,2.7,-25.6,5.73,2.33,-26.6,28.0
2012-02-14 00:37:00,0.0,1.9006,0.0008,400.61,0.36,103.0,31.5,138.10,28.57,24.60,36.33,0.04,-272.74,-272.74,-49,563,-928,23.2,2.6,-26.0,23.2,2.7,-25.6,5.73,2.46,-26.5,28.0
2012-02-14 00:38:00,0.0,1.9006,0.0009,400.72,0.40,113.3,30.1,138.10,28.59,24.61,36.32,0.04,-272.74,-272.74,-49,563,-928,23.3,2.6,-25.9,23.2,2.7,-25.5,5.73,2.27,-26.4,27.6
2012-02-14 00:39:00,0.0,1.9006,0.0011,400.48,0.40,111.0,38.0,138.11,28.60,24.61,36.33,0.04,-272.73,-272.74,-49,563,-929,23.3,2.6,-25.8,23.2,2.7,-25.5,5.73,2.36,-26.5,27.3
2012-02-14 00:40:00,0.0,1.9005,0.0008,400.63,0.41,86.7,32.3,138.11,28.61,24.61,36.33,0.04,-272.74,-272.74,-49,564,-929,23.2,2.6,-25.8,23.2,2.7,-25.4,5.73,2.39,-26.6,27.0
2012-02-14 00:41:00,0.0,1.9000,0.0009,400.72,0.39,75.9,33.3,138.12,28.60,24.61,36.32,0.04,-272.74,-272.74,-49,564,-929,23.2,2.6,-25.9,23.1,2.7,-25.4,5.73,2.39,-26.8,26.7
2012-02-14 00:42:00,0.0,1.9004,0.0010,400.48,0.39,74.2,29.1,138.12,28.59,24.60,36.33,0.04,-272.74,-272.74,-49,563,-929,23.1,2.6,-26.2,23.1,2.7,-25.7,5.73,2.38,-26.9,26.5
2012-02-14 00:43:00,0.0,1.9006,0.0011,400.72,0.37,53.9,32.7,138.13,28.58,24.60,36.32,0.04,-272.74,-272.74,-49,564,-929,23.1,2.5,-26.4,23.0,2.6,-26.1,5.73,2.37,-27.0,26.3
2012-02-14 00:44:00,0.0,1.9007,0.0010,400.67,0.38,53.4,27.3,138.13,28.56,24.60,36.32,0.04,-272.74,-272.73,-49,563,-929,23.0,2.5,-26.4,23.0,2.6,-26.0,5.73,2.38,-27.1,26.2
2012-02-14 00:45:00,0.0,1.9004,0.0009,400.56,0.31,43.8,29.3,138.14,28.54,24.60,36.33,0.04,-272.73,-272.73,-50,564,-929,23.0,2.5,-26.3,22.9,2.7,-25.9,5.73,2.38,-27.2,26.0
2012-02-14 00:46:00,0.0,1.9006,0.0008,400.71,0.42,23.5,25.1,138.14,28.52,24.60,36.32,0.04,-272.73,-272.74,-50,563,-929,22.9,2.6,-26.3,22.9,2.7,-25.9,5.73,2.39,-27.3,26.0
2012-02-14 00:47:00,0.0,1.9003,0.0010,400.77,0.41,13.3,21.1,138.15,28.50,24.60,36.32,0.04,-272.73,-272.74,-50,563,-929,22.9,2.6,-26.2,22.8,2.7,-25.8,5.73,2.40,-27.4,25.9
2012-02-14 00:48:00,0.0,1.8994,0.0010,400.83,0.42,14.2,20.2,138.15,28.47,24.60,36.32,0.04,-272.74,-272.74,-49,563,-929,22.9,2.6,-26.2,22.8,2.7,-25.8,5.73,2.38,-27.5,25.8
2012-02-14 00:49:00,0.0,1.8991,0.0009,400.76,0.40,20.7,27.7,138.15,28.45,24.60,36.32,0.04,-272.73,-272.73,-49,563,-929,22.8,2.6,-26.2,22.7,2.7,-25.8,5.73,2.35,-27.6,26.3
2012-02-14 00:50:00,0.0,1.8990,0.0008,400.78,0.38,16.5,19.6,138.15,28.43,24.60,36.31,0.04,-272.73,-272.74,-49,563,-929,22.8,2.6,-26.2,22.7,2.7,-25.9,5.73,2.38,-27.5,26.6
2012-02-14 00:51:00,0.0,1.8993,0.0009,400.79,0.32,18.4,23.4,138.14,28.42,24.60,36.31,0.04,-272.74,-272.73,-49,562,-929,22.9,2.6,-26.2,22.8,2.7,-25.9,5.73,2.49,-27.4,26.9
2012-02-14 00:52:00,0.0,1.8996,0.0009,400.73,0.38,27.5,26.4,138.14,28.41,24.60,36.31,0.04,-272.73,-272.73,-48,565,-928,22.9,2.6,-26.2,22.8,2.7,-25.8,5.73,2.31,-27.3,27.1
2012-02-14 00:53:00,0.0,1.8996,0.0010,400.47,0.41,30.9,29.3,138.13,28.41,24.60,36.32,0.04,-272.74,-272.73,-48,562,-926,22.9,2.6,-26.3,22.8,2.6,-26.0,5.73,2.35,-27.3,27.2
2012-02-14 00:54:00,0.0,1.8999,0.0010,400.40,0.37,35.6,27.7,138.13,28.41,24.60,36.33,0.04,-272.74,-272.74,-48,562,-925,22.9,2.5,-26.5,22.9,2.6,-26.1,5.73,2.48,-27.2,27.3
2012-02-14 00:55:00,0.0,1.8998,0.0009,400.39,0.27,42.8,27.8,138.12,28.42,24.60,36.33,0.04,-272.73,-272.73,-49,562,-926,22.9,2.5,-26.4,22.9,2.6,-26.1,5.73,2.26,-27.1,27.4
2012-02-14 00:56:00,0.0,1.9000,0.0008,400.39,0.41,52.6,32.4,138.12,28.43,24.60,36.32,0.04,-272.74,-272.73,-48,561,-928,23.0,2.5,-26.3,22.9,2.6,-25.9,5.73,2.48,-27.0,27.5
2012-02-14 00:57:00,0.0,1.8997,0.0008,400.37,0.33,66.5,29.4,138.12,28.44,24.60,36.32,0.04,-272.74,-272.73,-47,562,-927,23.0,2.5,-26.3,23.0,2.6,-26.0,5.73,2.32,-27.0,27.6
2012-02-14 00:58:00,0.0,1.8999,0.0007,400.48,0.36,81.2,32.0,138.11,28.46,24.60,36.32,0.04,-272.74,-272.74,-49,562,-929,23.0,2.5,-26.4,23.0,2.6,-26.0,5.73,2.38,-26.9,27.7
2012-02-14 00:59:00,0.0,1.8997,0.0008,400.49,0.46,78.8,32.8,138.11,28.47,24.60,36.32,0.04,-272.74,-272.73,-49,563,-928,23.0,2.5,-26.3,23.0,2.6,-25.9,5.73,2.41,-26.8,27.7
2012-02-14 01:00:00,0.0,1.8997,0.0008,400.34,0.48,88.3,38.8,138.11,28.49,24.60,36.33,0.04,-272.74,-272.73,-49,562,-928,23.1,2.5,-26.3,23.1,2.6,-25.9,5.73,2.30,-26.7,27.8
2012-02-14 01:01:00,0.0,1.9000,0.0008,400.49,0.40,87.3,29.5,138.11,28.51,24.60,36.32,0.04,-272.73,-272.74,-49,562,-928,23.1,2.5,-26.2,23.1,2.6,-25.8,5.73,2.48,-26.7,27.8
2012-02-14 01:02:00,0.0,1.9002,0.0009,400.51,0.34,98.7,33.5,138.10,28.53,24.60,36.33,0.04,-272.74,-272.73,-49,563,-928,23.1,2.6,-26.1,23.1,2.7,-25.7,5.73,2.26,-26.6,27.9
2012-02-14 01:03:00,0.0,1.9006,0.0009,400.54,0.36,97.2,40.0,138.10,28.55,24.60,36.33,0.04,-272.74,-272.74,-49,562,-928,23.2,2.6,-25.9,23.2,2.7,-25.5,5.73,2.49,-26.6,27.9
2012-02-14 01:04:00,0.0,1.9010,0.0008,400.48,0.42,100.2,35.8,138.10,28.57,24.60,36.33,0.04,-272.74,-272.74,-49,563,-928,23.2,2.5,-26.2,23.2,2.6,-25.8,5.73,2.26,-26.5,28.0
2012-02-14 01:05:00,0.0,1.9007,0.0009,400.64,0.42,113.1,34.8,138.10,28.59,24.60,36.33,0.04,-272.74,-272.74,-49,563,-928,23.3,2.4,-26.6,23.2,2.5,-26.2,5.73,2.43,-26.4,27.7
2012-02-14 01:06:00,0.0,1.9009,0.0009,400.60,0.37,107.4,37.9,138.10,28.60,24.60,36.33,0.04,-272.74,-272.74,-49,563,-929,23.3,2.4,-26.7,23.2,2.5,-26.2,5.73,2.44,-26.5,27.2
2012-02-14 01:07:00,0.0,1.9006,0.0009,400.65,0.35,100.8,36.1,138.11,28.60,24.61,36.33,0.04,-272.74,-272.74,-49,564,-929,23.2,2.4,-26.9,23.2,2.5,-26.5,5.73,2.39,-26.6,26.9
2012-02-14 01:08:00,0.0,1.9007,0.0008,400.47,0.35,83.3,34.2,138.12,28.60,24.60,36.33,0.04,-272.74,-272.74,-49,564,-929,23.2,2.4,-26.8,23.2,2.5,-26.3,5.73,2.38,-26.8,26.7
2012-02-14 01:09:00,0.0,1.9006,0.0009,400.50,0.37,73.1,38.1,138.12,28.60,24.60,36.33,0.04,-272.73,-272.74,-49,564,-929,23.2,2.5,-26.3,23.1,2.6,-26.0,5.73,2.38,-26.9,26.6
2012-02-14 01:10:00,0.0,1.9007,0.0008,400.56,0.34,51.9,31.5,138.13,28.59,24.60,36.33,0.04,-272.73,-272.74,-49,564,-929,23.1,2.6,-26.1,23.1,2.7,-25.7,5.73,2.39,-27.0,26.3
2012-02-14 01:11:00,0.0,1.9007,0.0010,400.62,0.39,46.4,27.3,138.13,28.57,24.60,36.32,0.04,-272.74,-272.73,-49,564,-929,23.1,2.6,-26.1,23.0,2.7,-25.7,5.73,2.39,-27.1,26.2
2012-02-14 01:12:00,0.0,1.9009,0.0010,400.73,0.40,31.3,24.0,138.14,28.55,24.60,36.32,0.04,-272.73,-272.74,-50,564,-929,23.0,2.6,-26.1,22.9,2.7,-25.7,5.73,2.38,-27.2,26.2
2012-02-14 01:13:00,0.0,1.9004,0.0008,400.68,0.37,32.4,27.1,138.14,28.53,24.60,36.32,0.04,-272.73,-272.74,-50,563,-929,23.0,2.6,-26.1,22.9,2.7,-25.7,5.73,2.37,-27.3,26.1
2012-02-14 01:14:00,0.0,1.8999,0.0008,400.77,0.35,23.9,25.7,138.14,28.51,24.61,36.32,0.04,-272.74,-272.74,-50,563,-929,22.9,2.5,-26.5,22.9,2.6,-26.1,5.73,2.37,-27.4,26.0
2012-02-14 01:15:00,0.0,1.8996,0.0009,400.82,0.44,17.3,20.4,138.15,28.48,24.60,36.32,0.04,-272.73,-272.74,-50,563,-929,22.9,2.4,-27.0,22.8,2.5,-26.6,5.73,2.36,-27.5,25.8
2012-02-14 01:16:00,0.0,1.8991,0.0008,400.69,0.33,10.7,21.4,138.15,28.46,24.60,36.32,0.04,-272.73,-272.73,-49,563,-929,22.9,2.5,-26.6,22.8,2.6,-26.3,5.73,2.38,-27.6,26.0
2012-02-14 01:17:00,0.0,1.8986,0.0010,400.63,0.37,20.7,27.2,138.15,28.43,24.60,36.32,0.04,-272.74,-272.74,-49,562,-928,22.9,2.6,-26.2,22.7,2.7,-25.9,5.73,2.39,-27.6,26.5
2012-02-14 01:18:00,0.0,1.8995,0.0007,400.68,0.41,15.3,22.2,138.14,28.42,24.60,36.32,0.04,-272.74,-272.74,-49,563,-929,22.9,2.6,-26.1,22.8,2.7,-25.7,5.73,2.28,-27.5,26.8
2012-02-14 01:19:00,0.0,1.8994,0.0008,400.56,0.39,28.0,25.4,138.14,28.41,24.60,36.32,0.04,-272.74,-272.74,-49,562,-928,22.9,2.6,-26.0,22.8,2.7,-25.7,5.73,2.39,-27.4,27.0
2012-02-14 01:20:00,0.0,1.8997,0.0009,400.48,0.38,26.4,27.3,138.13,28.41,24.60,36.32,0.04,-272.74,-272.74,-50,564,-929,22.9,2.6,-25.9,22.8,2.7,-25.6,5.73,2.45,-27.3,27.2
2012-02-14 01:21:00,0.0,1.8998,0.0009,400.52,0.38,46.2,29.1,138.13,28.42,24.60,36.32,0.04,-272.74,-272.73,-54,559,-928,22.9,2.7,-25.9,22.9,2.7,-25.6,5.73,2.26,-27.2,27.3
2012-02-14 01:22:00,0.0,1.9000,0.0009,400.53,0.38,46.5,33.7,138.12,28.43,24.60,36.32,0.04,-272.74,-272.74,-51,563,-928,23.0,2.6,-25.9,22.9,2.7,-25.6,5.73,2.48,-27.1,27.4
2012-02-14 01:23:00,0.0,1.8999,0.0009,400.35,0.36,56.0,33.5,138.12,28.44,24.60,36.33,0.04,-272.74,-272.74,-51,560,-929,23.0,2.6,-26.0,22.9,2.7,-25.6,5.73,2.30,-27.0,27.5
2012-02-14 01:24:00,0.0,1.8996,0.0011,400.30,0.32,60.9,35.3,138.12,28.45,24.60,36.32,0.04,-272.74,-272.74,-49,562,-928,23.0,2.6,-25.9,23.0,2.7,-25.5,5.73,2.40,-26.9,27.6
2012-02-14 01:25:00,0.0,1.8997,0.0009,400.42,0.45,68.7,33.8,138.11,28.47,24.60,36.32,0.04,-272.73,-272.74,-49,562,-928,23.1,2.6,-25.9,23.0,2.7,-25.5,5.73,2.41,-26.9,27.7
2012-02-14 01:26:00,0.0,1.8996,0.0008,400.47,0.38,68.0,28.1,138.11,28.48,24.60,36.32,0.04,-272.73,-272.73,-49,563,-928,23.1,2.6,-26.0,23.1,2.7,-25.6,5.73,2.30,-26.8,27.8
2012-02-14 01:27:00,0.0,1.8997,0.0008,400.52,0.40,80.6,28.5,138.11,28.50,24.60,36.33,0.04,-272.74,-272.74,-49,563,-928,23.1,2.5,-26.4,23.1,2.6,-26.1,5.73,2.47,-26.7,27.9
2012-02-14 01:28:00,0.0,1.9003,0.0008,400.48,0.38,92.0,31.7,138.10,28.52,24.60,36.33,0.04,-272.74,-272.74,-49,562,-928,23.2,2.4,-26.9,23.1,2.5,-26.4,5.73,2.26,-26.6,28.0
2012-02-14 01:29:00,0.0,1.9002,0.0010,400.52,0.39,91.4,35.8,138.10,28.54,24.60,36.33,0.04,-272.73,-272.74,-49,563,-928,23.2,2.3,-27.0,23.2,2.4,-26.6,5.73,2.49,-26.5,28.0
2012-02-14 01:30:00,0.0,1.9001,0.0009,400.54,0.38,109.0,34.4,138.10,28.56,24.60,36.33,0.04,-272.73,-272.73,-49,563,-928,23.3,2.4,-26.8,23.2,2.5,-26.4,5.73,2.27,-26.5,28.1
2012-02-14 01:31:00,0.0,1.9008,0.0008,400.61,0.39,114.1,30.3,138.10,28.58,24.60,36.33,0.04,-272.74,-272.74,-49,563,-928,23.3,2.4,-26.5,23.3,2.5,-26.1,5.73,2.46,-26.4,28.2
2012-02-14 01:32:00,0.0,1.9011,0.0009,400.64,0.36,118.4,30.1,138.10,28.60,24.60,36.33,0.04,-272.74,-272.74,-49,563,-929,23.4,2.5,-26.2,23.3,2.6,-25.9,5.73,2.38,-26.3,27.8
2012-02-14 01:33:00,0.0,1.9015,0.0008,400.58,0.34,101.6,31.7,138.10,28.62,24.60,36.33,0.04,-272.74,-272.73,-49,563,-929,23.4,2.5,-26.4,23.3,2.6,-25.9,5.73,2.31,-26.4,27.4
2012-02-14 01:34:00,0.0,1.9010,0.0007,400.64,0.40,99.0,32.3,138.11,28.63,24.60,36.33,0.04,-272.73,-272.73,-49,564,-929,23.3,2.4,-26.8,23.3,2.5,-26.3,5.73,2.35,-26.5,27.1
2012-02-14 01:35:00,0.0,1.9009,0.0007,400.63,0.33,82.1,29.2,138.11,28.63,24.60,36.33,0.04,-272.74,-272.74,-49,564,-929,23.3,2.5,-26.5,23.2,2.6,-26.1,5.73,2.37,-26.5,26.9
2012-02-14 01:36:00,0.0,1.9006,0.0010,400.59,0.38,79.9,30.0,138.12,28.63,24.61,36.33,0.04,-272.74,-272.74,-49,564,-929,23.3,2.5,-26.3,23.2,2.6,-25.9,5.73,2.38,-26.8,26.5
2012-02-14 01:37:00,0.0,1.9004,0.0008,400.57,0.35,61.6,33.8,138.13,28.62,24.60,36.33,0.04,-272.73,-272.74,-50,564,-929,23.3,2.5,-26.4,23.2,2.6,-25.9,5.73,2.39,-26.9,26.5
2012-02-14 01:38:00,0.0,1.9008,0.0009,400.71,0.43,58.6,33.1,138.13,28.61,24.60,36.33,0.04,-272.73,-272.74,-50,564,-929,23.2,2.5,-26.4,23.1,2.6,-26.0,5.73,2.39,-27.0,26.3
2012-02-14 01:39:00,0.0,1.9012,0.0008,400.79,0.35,44.4,29.9,138.14,28.59,24.60,36.32,0.04,-272.74,-272.74,-50,564,-929,23.2,2.5,-26.4,23.1,2.6,-26.0,5.73,2.40,-27.1,26.2
2012-02-14 01:40:00,0.0,1.9008,0.0009,400.71,0.36,35.9,29.5,138.14,28.57,24.60,36.32,0.04,-272.73,-272.74,-50,564,-929,23.1,2.5,-26.5,23.0,2.6,-26.2,5.73,2.40,-27.2,26.0
2012-02-14 01:41:00,0.0,1.9001,0.0008,400.71,0.40,27.6,28.5,138.14,28.55,24.61,36.33,0.04,-272.74,-272.74,-50,564,-929,23.1,2.5,-26.3,23.0,2.6,-25.9,5.73,2.40,-27.3,26.0
2012-02-14 01:42:00,0.0,1.8997,0.0009,400.71,0.40,24.2,29.1,138.15,28.52,24.60,36.32,0.04,-272.73,-272.74,-49,563,-929,23.0,2.6,-26.2,22.9,2.7,-25.8,5.73,2.41,-27.4,25.8
2012-02-14 01:43:00,0.0,1.8995,0.0009,400.83,0.41,13.5,20.5,138.15,28.50,24.60,36.32,0.04,-272.73,-272.73,-49,563,-929,23.0,2.5,-26.4,22.9,2.6,-26.0,5.73,2.36,-27.5,25.9
2012-02-14 01:44:00,0.0,1.8990,0.0009,400.64,0.36,13.4,17.7,138.15,28.48,24.60,36.33,0.04,-272.73,-272.74,-50,563,-929,23.0,2.5,-26.6,22.8,2.6,-26.3,5.73,2.30,-27.5,26.5
2012-02-14 01:45:00,0.0,1.8993,0.0008,400.59,0.39,17.0,25.2,138.14,28.46,24.60,36.32,0.04,-272.74,-272.74,-50,563,-929,23.0,2.5,-26.4,22.9,2.6,-26.1,5.73,2.38,-27.4,26.8
2012-02-14 01:46:00,0.0,1.9001,0.0009,400.53,0.38,27.3,28.9,138.14,28.46,24.60,36.33,0.04,-272.74,-272.74,-49,563,-929,23.0,2.5,-26.4,22.9,2.6,-26.0,5.73,2.47,-27.3,27.1
2012-02-14 01:47:00,0.0,1.8999,0.0009,400.60,0.41,33.4,25.4,138.13,28.46,24.60,36.31,0.04,-272.74,-272.74,-50,562,-928,23.0,2.5,-26.3,22.9,2.6,-26.0,5.73,2.27,-27.2,27.2
2012-02-14 01:48:00,0.0,1.8996,0.0009,400.50,0.40,39.3,32.1,138.13,28.46,24.60,36.32,0.04,-272.73,-272.74,-50,562,-929,23.0,2.5,-26.3,23.0,2.6,-26.0,5.73,2.43,-27.2,27.3
2012-02-14 01:49:00,0.0,1.9002,0.0009,400.33,0.33,46.2,33.9,138.12,28.47,24.60,36.33,0.04,-272.74,-272.73,-49,563,-928,23.1,2.5,-26.4,23.0,2.6,-26.0,5.73,2.40,-27.1,27.5
2012-02-14 01:50:00,0.0,1.9001,0.0009,400.34,0.36,69.6,34.6,138.12,28.48,24.60,36.33,0.04,-272.73,-272.74,-49,563,-928,23.1,2.4,-26.9,23.0,2.5,-26.6,5.73,2.29,-27.0,27.6
2012-02-14 01:51:00,0.0,1.8997,0.0011,400.37,0.27,59.3,32.1,138.11,28.49,24.60,36.32,0.04,-272.74,-272.73,-50,563,-929,23.1,2.4,-26.7,23.1,2.5,-26.4,5.73,2.49,-26.9,27.6
2012-02-14 01:52:00,0.0,1.9000,0.0012,400.42,0.40,72.2,31.3,138.11,28.51,24.60,36.33,0.04,-272.73,-272.74,-49,563,-929,23.1,2.5,-26.5,23.1,2.6,-26.1,5.73,2.26,-26.9,27.7
2012-02-14 01:53:00,0.0,1.8999,0.0008,400.43,0.35,74.5,31.1,138.11,28.52,24.60,36.33,0.04,-272.74,-272.74,-50,562,-928,23.2,2.5,-26.5,23.1,2.6,-26.1,5.73,2.48,-26.8,27.8
2012-02-14 01:54:00,0.0,1.8999,0.0008,400.44,0.37,80.5,31.0,138.11,28.54,24.60,36.33,0.04,-272.74,-272.74,-49,563,-928,23.2,2.5,-26.5,23.1,2.5,-26.2,5.73,2.30,-26.7,27.9
2012-02-14 01:55:00,0.0,1.9000,0.0010,400.56,0.36,89.9,33.9,138.11,28.56,24.60,36.33,0.04,-272.74,-272.74,-49,563,-928,23.2,2.4,-26.7,23.2,2.5,-26.3,5.73,2.41,-26.7,28.0
2012-02-14 01:56:00,0.0,1.9015,0.0010,400.57,0.39,96.4,36.7,138.10,28.58,24.60,36.33,0.04,-272.74,-272.74,-50,564,-929,23.3,2.3,-27.0,23.2,2.4,-26.6,5.73,2.37,-26.6,28.0
2012-02-14 01:57:00,0.0,1.9012,0.0010,400.63,0.38,98.6,31.8,138.10,28.60,24.60,36.33,0.04,-272.74,-272.74,-49,563,-928,23.3,2.3,-27.2,23.3,2.4,-26.9,5.73,2.34,-26.5,28.1
2012-02-14 01:58:00,0.0,1.9012,0.0011,400.65,0.32,102.2,34.5,138.10,28.62,24.60,36.33,0.04,-272.74,-272.74,-49,563,-928,23.3,2.3,-27.0,23.3,2.4,-26.6,5.73,2.44,-26.5,28.1
2012-02-14 01:59:00,0.0,1.9013,0.0008,400.52,0.37,104.0,29.0,138.10,28.63,24.60,36.34,0.04,-272.74,-272.73,-49,564,-929,23.4,2.4,-26.8,23.3,2.5,-26.5,5.73,2.27,-26.5,27.6
2012-02-14 02:00:00,0.0,1.9013,0.0008,400.67,0.37,95.9,26.1,138.11,28.64,24.60,36.32,0.04,-272.73,-272.74,-49,564,-929,23.4,2.4,-26.9,23.3,2.5,-26.5,5.73,2.38,-26.5,27.2
2012-02-14 02:01:00,0.0,1.9011,0.0011,400.52,0.34,84.6,35.4,138.11,28.65,24.60,36.33,0.04,-272.74,-272.74,-49,564,-929,23.3,2.4,-26.9,23.3,2.4,-26.5,5.73,2.40,-26.7,27.0
2012-02-14 02:02:00,0.0,1.9009,0.0010,400.48,0.37,81.6,33.9,138.11,28.65,24.60,36.34,0.04,-272.74,-272.74,-49,564,-929,23.3,2.4,-26.9,23.2,2.5,-26.5,5.73,2.39,-26.8,26.7
2012-02-14 02:03:00,0.0,1.9013,0.0009,400.59,0.37,58.8,34.4,138.12,28.64,24.60,36.33,0.04,-272.73,-272.73,-49,564,-929,23.2,2.3,-27.0,23.2,2.5,-26.6,5.73,2.38,-26.9,26.4
2012-02-14 02:04:00,0.0,1.9013,0.0008,400.65,0.37,52.8,33.2,138.12,28.63,24.60,36.33,0.04,-272.74,-272.74,-50,564,-929,23.2,2.3,-27.2,23.1,2.4,-26.9,5.73,2.37,-27.0,26.3
2012-02-14 02:05:00,0.0,1.9012,0.0010,400.62,0.33,43.5,33.0,138.13,28.61,24.60,36.33,0.04,-272.74,-272.73,-50,564,-929,23.2,2.3,-27.3,23.1,2.4,-27.0,5.73,2.36,-27.2,26.2
2012-02-14 02:06:00,0.0,1.9010,0.0009,400.54,0.41,29.3,30.6,138.14,28.59,24.60,36.33,0.04,-272.74,-272.74,-49,564,-929,23.1,2.3,-27.1,23.0,2.4,-26.8,5.73,2.37,-27.3,26.1
2012-02-14 02:07:00,0.0,1.9010,0.0010,400.77,0.40,24.3,25.9,138.14,28.57,24.60,36.32,0.04,-272.73,-272.74,-49,564,-929,23.1,2.4,-26.9,23.0,2.5,-26.5,5.73,2.37,-27.4,26.0
2012-02-14 02:08:00,0.0,1.9004,0.0009,400.77,0.41,23.7,27.8,138.14,28.55,24.60,36.32,0.04,-272.74,-272.74,-50,563,-929,23.0,2.4,-26.7,22.9,2.5,-26.4,5.73,2.37,-27.5,25.9
2012-02-14 02:09:00,0.0,1.9001,0.0010,400.67,0.39,15.7,22.2,138.15,28.52,24.60,36.33,0.04,-272.74,-272.74,-50,563,-929,23.0,2.5,-26.6,22.9,2.6,-26.3,5.73,2.38,-27.5,25.8
2012-02-14 02:10:00,0.0,1.8991,0.0008,400.69,0.38,8.0,13.1,138.15,28.50,24.60,36.33,0.04,-272.73,-272.74,-50,563,-929,22.9,2.5,-26.6,22.8,2.6,-26.4,5.73,2.39,-27.6,26.1
2012-02-14 02:11:00,0.0,1.8995,0.0008,400.74,0.43,14.1,27.3,138.15,28.47,24.60,36.32,0.04,-272.74,-272.74,-50,563,-929,22.9,2.4,-26.8,22.8,2.5,-26.5,5.73,2.43,-27.6,26.5
2012-02-14 02:12:00,0.0,1.8998,0.0009,400.68,0.40,18.7,23.5,138.14,28.46,24.60,36.32,0.04,-272.74,-272.74,-50,563,-929,22.9,2.5,-26.7,22.8,2.6,-26.4,5.73,2.47,-27.5,26.8
2012-02-14 02:13:00,0.0,1.9001,0.0007,400.61,0.42,23.9,27.2,138.14,28.46,24.60,36.32,0.04,-272.74,-272.74,-50,563,-929,23.0,2.5,-26.5,22.9,2.6,-26.2,5.73,2.28,-27.4,27.0
2012-02-14 02:14:00,0.0,1.9003,0.0009,400.58,0.34,33.3,22.3,138.13,28.46,24.60,36.32,0.04,-272.74,-272.73,-49,563,-929,23.0,2.5,-26.4,22.9,2.6,-26.0,5.73,2.39,-27.3,27.2
2012-02-14 02:15:00,0.0,1.9001,0.0008,400.45,0.41,34.5,28.2,138.13,28.46,24.60,36.32,0.04,-272.74,-272.74,-50,563,-929,23.0,2.5,-26.3,22.9,2.6,-26.0,5.73,2.44,-27.3,27.3
2012-02-14 02:16:00,0.0,1.8998,0.0008,400.43,0.36,48.8,30.9,138.12,28.47,24.60,36.32,0.04,-272.73,-272.74,-50,563,-928,23.0,2.5,-26.4,23.0,2.6,-26.0,5.73,2.27,-27.2,27.4
2012-02-14 02:17:00,0.0,1.9000,0.0008,400.39,0.35,54.2,31.6,138.12,28.48,24.60,36.32,0.04,-272.74,-272.73,-50,563,-929,23.1,2.5,-26.6,23.0,2.6,-26.2,5.73,2.49,-27.1,27.5